Greenville, AL

10:26 AM CDT on April 24, 2017 (GMT -0500)
Greenville Municipal

Weather History for KPRN - October, 2011

Change the Weather History Date:

Saturday, October 8, 2011

  Actual Average Record
Temperature  
Mean Temperature 71 °F -  
Max Temperature 81 °F 79 °F 94 °F (1990)
Min Temperature 61 °F 56 °F 39 °F (1991)
Cooling Degree Days 6    
Growing Degree Days 21 (Base 50)    
Moisture  
Dew Point 57 °F    
Average Humidity 62    
Maximum Humidity 83    
Minimum Humidity 44    
Precipitation  
Precipitation 0.00 in - - ()
Sea Level Pressure  
Sea Level Pressure 30.21 in    
Wind  
Wind Speed 8 mph (ENE)    
Max Wind Speed 16 mph    
Max Gust Speed 23 mph    
Visibility 10 miles    
Events      
Averages and records for this station are not official NWS values.
T = Trace of Precipitation, MM = Missing Value Source: NWS Daily Summary

Daily Weather History Graph

Daily Weather History Graph

Search for Another Location

Airport or City:

Trip Planner

Search our weather history database for the weather conditions in past years. The results will help you decide how hot, cold, wet, or windy it might be!

Date:

Astronomy

Oct. 08, 2011 Rise Set
Actual Time 6:44 AM CDT 6:22 PM CDT
Civil Twilight 6:20 AM CDT 6:47 PM CDT
Nautical Twilight 5:52 AM CDT 7:15 PM CDT
Astronomical Twilight 5:23 AM CDT 7:43 PM CDT
Moon 4:25 PM CDT (10/8) 3:41 AM CDT (10/8)
Length of Visible Light 12h 26m
Length of Day
11h 38m
Waxing Gibbous, 90% of the Moon is Illuminated
Oct 8
Waxing Gibbous
Oct 11
Full
Oct 19
Last Quarter
Oct 26
New
Nov 2
First Quarter

Hourly Weather History & Observations

Time (CDT) Temp. Heat Index Dew Point Humidity Pressure Visibility Wind Dir Wind Speed Gust Speed Precip Events Conditions
12:56 AM 64.9 °F - 55.0 °F 70% 30.23 in 10.0 mi ENE 6.9 mph - N/A   Clear
1:56 AM 64.0 °F - 55.9 °F 75% 30.22 in 10.0 mi ENE 5.8 mph - N/A   Clear
2:56 AM 64.0 °F - 57.0 °F 78% 30.22 in 10.0 mi East 6.9 mph - N/A   Clear
3:56 AM 64.0 °F - 57.0 °F 78% 30.21 in 10.0 mi East 8.1 mph - N/A   Clear
4:56 AM 63.0 °F - 57.0 °F 81% 30.23 in 10.0 mi ENE 8.1 mph - N/A   Clear
5:56 AM 63.0 °F - 55.9 °F 78% 30.24 in 10.0 mi ENE 5.8 mph - N/A   Clear
6:56 AM 61.0 °F - 55.9 °F 83% 30.25 in 10.0 mi NE 4.6 mph - N/A   Clear
7:56 AM 64.0 °F - 55.9 °F 75% 30.26 in 10.0 mi ENE 6.9 mph - N/A   Clear
8:56 AM 68.0 °F - 57.9 °F 70% 30.27 in 10.0 mi ENE 9.2 mph - N/A   Clear
9:56 AM 73.0 °F - 60.1 °F 64% 30.27 in 10.0 mi East 12.7 mph 19.6 mph N/A   Clear
10:56 AM 75.9 °F - 61.0 °F 60% 30.27 in 10.0 mi East 16.1 mph 21.9 mph N/A   Clear
11:56 AM 80.1 °F 80.9 °F 60.1 °F 50% 30.24 in 10.0 mi East 11.5 mph 23.0 mph N/A   Clear
12:56 PM 80.1 °F 80.9 °F 60.1 °F 50% 30.22 in 10.0 mi East 11.5 mph - N/A   Partly Cloudy
1:56 PM 81.0 °F 81.3 °F 59.0 °F 47% 30.19 in 10.0 mi ESE 12.7 mph 19.6 mph N/A   Partly Cloudy
2:56 PM 81.0 °F 81.1 °F 57.9 °F 45% 30.17 in 10.0 mi East 10.4 mph - N/A   Clear
3:56 PM 80.1 °F 80.4 °F 57.0 °F 45% 30.15 in 10.0 mi East 9.2 mph 19.6 mph N/A   Clear
4:56 PM 81.0 °F 81.0 °F 57.0 °F 44% 30.15 in 10.0 mi East 11.5 mph - N/A   Clear
5:56 PM 79.0 °F - 57.0 °F 47% 30.15 in 10.0 mi NE 5.8 mph - N/A   Clear
6:56 PM 75.0 °F - 55.9 °F 51% 30.16 in 10.0 mi ENE 5.8 mph - N/A   Clear
7:56 PM 73.9 °F - 55.9 °F 53% 30.17 in 10.0 mi East 8.1 mph - N/A   Clear
8:56 PM 72.0 °F - 55.0 °F 55% 30.19 in 10.0 mi East 6.9 mph - N/A   Clear
9:56 PM 71.1 °F - 55.0 °F 57% 30.19 in 10.0 mi East 11.5 mph - N/A   Clear
10:56 PM 69.1 °F - 55.0 °F 61% 30.19 in 10.0 mi ENE 5.8 mph - N/A   Clear
11:56 PM 66.9 °F - 54.0 °F 63% 30.17 in 10.0 mi ENE 6.9 mph - N/A   Clear